Location: Unspecified
(0.0000°N, 0.0000°E)
Time: 06:35:19
(UTC+00:00)

Vanguard 2 Rocket - Pass Details

Date: 28 November 2019
Orbit: 554 x 3326 km, 32.9° (Epoch: 11 December)

Event Time Altitude Azimuth Distance (km) Brightness Sun altitude
Rises 18:40:41 0° 243° (WSW) 6,479 13.3 -12.3°
Reaches altitude 10° 18:45:45 10° 247° (WSW) 5,053 12.2 -13.4°
Maximum altitude 18:58:26 52° 320° (NW) 1,881 8.5 -16.4°
Enters shadow 19:04:18 17° 30° (NNE) 2,561 8.7 -17.7°
Drops below altitude 10° 19:05:35 10° 35° (NE) 2,923 - -18.0°
Sets 19:07:47 0° 41° (NE) 3,625 - -18.5°
